CDT,Max TemperatureF,Mean TemperatureF,Min TemperatureF,Max Dew PointF,MeanDew PointF,Min DewpointF,Max Humidity, Mean Humidity, Min Humidity, Max Sea Level PressureIn, Mean Sea Level PressureIn, Min Sea Level PressureIn, Max VisibilityMiles, Mean VisibilityMiles, Min VisibilityMiles, Max Wind SpeedMPH, Mean Wind SpeedMPH, Max Gust SpeedMPH,PrecipitationIn, CloudCover, Events, WindDirDegrees
2012-10-1,73,58,42,49,44,39,89,63,36,29.92,29.88,29.84,10,10,10,17,4,24,0.00,0,,330
2012-10-2,71,55,39,46,41,36,100,63,25,29.99,29.94,29.87,10,5,0,9,2,15,0.00,0,Fog,35
2012-10-3,76,57,38,48,41,36,100,64,27,29.96,29.92,29.88,10,9,1,13,3,17,0.00,0,,169
2012-10-4,57,50,42,46,36,27,72,57,41,30.10,29.95,29.82,10,10,9,28,17,37,0.00,4,,238
2012-10-5,49,43,37,29,25,22,64,52,39,30.10,30.08,30.04,10,10,10,24,16,31,0.00,7,,280
2012-10-6,44,39,34,30,26,20,82,61,39,30.24,30.17,30.06,10,10,10,20,8,24,T,7,Rain,318
2012-10-7,51,39,26,25,19,13,78,50,21,30.21,30.10,29.95,10,10,10,18,8,24,0.00,1,,224
2012-10-8,63,50,36,39,27,19,56,42,27,29.94,29.78,29.62,10,10,10,24,12,32,T,5,,189
2012-10-9,52,45,38,46,37,25,93,69,45,29.92,29.78,29.72,10,10,6,22,9,28,0.11,7,Rain,262
2012-10-10,50,40,30,28,25,22,78,55,32,30.09,30.02,29.92,10,10,10,20,9,24,0.00,5,,253
2012-10-11,53,40,27,34,25,12,69,45,21,30.38,30.07,29.83,10,10,10,20,8,26,T,4,Rain,309
2012-10-12,51,36,21,25,20,15,88,56,24,30.48,30.37,30.13,10,10,10,15,5,20,T,1,,155
2012-10-13,50,45,39,48,43,30,100,73,45,30.07,29.82,29.69,10,4,2,15,6,21,0.24,8,Rain,100
2012-10-14,52,43,33,47,41,33,93,74,54,29.85,29.73,29.66,10,10,6,17,8,28,0.00,6,,8
2012-10-15,60,45,30,38,34,29,100,68,36,29.96,29.89,29.82,10,10,2,12,3,17,0.00,2,,198
2012-10-16,64,55,46,49,44,38,93,75,56,29.80,29.56,29.39,10,10,10,20,6,28,0.01,4,,135
2012-10-17,63,53,43,53,47,40,100,82,63,29.39,29.28,29.22,10,10,6,22,7,29,0.01,5,Rain,209
2012-10-18,49,45,41,45,42,39,100,88,76,29.40,29.26,29.18,10,9,2,12,4,15,0.02,8,Rain,212
2012-10-19,53,42,31,43,39,32,100,77,54,29.73,29.54,29.40,10,10,6,14,2,18,0.01,7,,40
2012-10-20,56,41,25,38,32,24,100,74,47,29.88,29.80,29.73,10,5,0,8,1,10,0.00,1,Fog,189
2012-10-21,66,48,30,44,36,29,100,70,40,29.93,29.89,29.83,10,6,2,18,5,22,0.00,0,,98
2012-10-22,62,57,51,54,49,44,93,74,55,29.95,29.92,29.89,10,9,2,21,8,25,0.27,8,Rain-Thunderstorm,53
2012-10-23,64,59,54,61,55,51,93,89,84,29.90,29.81,29.73,9,7,5,14,8,18,0.02,8,Rain-Thunderstorm,124
2012-10-24,69,62,55,65,60,53,100,92,84,29.82,29.76,29.66,10,4,0,13,4,18,0.02,8,Fog-Rain-Thunderstorm,42
2012-10-25,56,46,36,54,42,27,93,79,64,30.12,29.73,29.51,10,8,2,24,12,35,0.83,8,Rain-Thunderstorm,327
2012-10-26,42,36,30,27,24,21,78,63,48,30.36,30.29,30.14,10,10,8,17,9,23,0.00,6,,259
2012-10-27,43,34,25,27,22,17,85,61,36,30.40,30.36,30.32,10,10,8,12,2,17,0.00,2,,246
2012-10-28,47,33,19,26,20,17,100,66,31,30.41,30.35,30.32,10,5,0,12,2,15,0.00,1,Fog,200
2012-10-29,50,35,20,26,21,18,96,62,27,30.40,30.34,30.26,10,8,2,8,1,14,0.00,1,,76
2012-10-30,49,37,24,30,23,18,92,62,31,30.25,30.13,30.03,10,10,7,18,7,31,0.00,0,,11
2012-10-31,51,35,19,23,15,2,91,52,13,30.03,29.98,29.92,10,10,10,15,6,20,0.00,1,,299